Location: La Brionne
(46.1728°N, 1.7849°E)
Time: 08:59:25
(UTC+00:00)

SPOT 5 - Pass Details

Date: 16 June 2021
Orbit: 622 x 815 km, 98.2° (Epoch: 02 August)

Event Time Altitude Azimuth Distance (km) Brightness Sun altitude
Exits shadow 20:53:09 12° 140° (SE) 2,209 4.7 -9.3°
Maximum altitude 20:57:44 46° 70° (ENE) 1,014 3.5 -9.8°
Drops below altitude 10° 21:02:28 10° 358° (N) 2,247 6.3 -10.4°
Sets 21:04:45 0° 352° (N) 3,143 7.3 -10.6°
